Year,Month,Day,Hour,Minute,Value (Times are PST for temperature in C)
2009,08,14,07,59,13.00
2009,08,14,08,00,13.00
2009,08,14,08,01,13.00
2009,08,14,08,02,13.00
2009,08,14,08,03,13.00
2009,08,14,08,04,13.00
2009,08,14,08,05,13.00
2009,08,14,08,06,13.00
2009,08,14,08,07,13.00
2009,08,14,08,08,13.00
2009,08,14,08,09,13.00
2009,08,14,08,10,13.00
2009,08,14,08,11,13.00
2009,08,14,08,12,13.00
2009,08,14,08,13,13.10
2009,08,14,08,14,13.10
2009,08,14,08,15,13.10
2009,08,14,08,16,13.10
2009,08,14,08,17,13.10
2009,08,14,08,18,13.20
2009,08,14,08,19,13.20
2009,08,14,08,20,13.20
2009,08,14,08,21,13.20
2009,08,14,08,22,13.20
2009,08,14,08,23,13.20
2009,08,14,08,24,13.20
2009,08,14,08,25,13.20
2009,08,14,08,26,13.20
2009,08,14,08,27,13.30
2009,08,14,08,28,13.30
2009,08,14,08,29,13.40
2009,08,14,08,30,13.40
2009,08,14,08,31,13.50
2009,08,14,08,32,13.50
2009,08,14,08,33,13.60
2009,08,14,08,34,13.50
2009,08,14,08,35,13.50
2009,08,14,08,36,13.60
2009,08,14,08,37,13.60
2009,08,14,08,38,13.60
2009,08,14,08,39,13.60
2009,08,14,08,40,13.60
2009,08,14,08,41,13.60
2009,08,14,08,42,13.60
2009,08,14,08,43,13.60
2009,08,14,08,44,13.70
2009,08,14,08,45,13.70
2009,08,14,08,46,13.80
2009,08,14,08,47,13.80
2009,08,14,08,48,13.90
2009,08,14,08,49,13.90
2009,08,14,08,50,13.90
2009,08,14,08,51,13.90
2009,08,14,08,52,13.90
2009,08,14,08,53,13.90
2009,08,14,08,54,13.90
2009,08,14,08,55,13.90
2009,08,14,08,56,13.90
2009,08,14,08,57,14.00
2009,08,14,08,58,14.00
2009,08,14,08,59,14.10
2009,08,14,09,00,14.10
2009,08,14,09,01,14.10
2009,08,14,09,02,14.10
2009,08,14,09,03,14.10
2009,08,14,09,04,14.20
2009,08,14,09,05,14.20
2009,08,14,09,06,14.20
2009,08,14,09,07,14.30
2009,08,14,09,08,14.30
2009,08,14,09,09,14.40
2009,08,14,09,10,14.40
2009,08,14,09,11,14.40
2009,08,14,09,12,14.40
2009,08,14,09,13,14.40
2009,08,14,09,14,14.50
2009,08,14,09,15,14.50
2009,08,14,09,16,14.50
2009,08,14,09,17,14.50
2009,08,14,09,18,14.60
2009,08,14,09,19,14.60
2009,08,14,09,20,14.70
2009,08,14,09,21,14.70
2009,08,14,09,22,14.70
2009,08,14,09,23,14.70
2009,08,14,09,24,14.70
2009,08,14,09,25,14.70
2009,08,14,09,26,14.80
2009,08,14,09,27,14.80
2009,08,14,09,28,14.80
2009,08,14,09,29,14.90
2009,08,14,09,30,14.90
2009,08,14,09,31,15.00
2009,08,14,09,32,15.00
2009,08,14,09,33,15.00
2009,08,14,09,34,15.00
2009,08,14,09,35,15.00
2009,08,14,09,36,15.00
2009,08,14,09,37,15.10
2009,08,14,09,38,15.20
2009,08,14,09,39,15.30
2009,08,14,09,40,15.30
2009,08,14,09,41,15.40
2009,08,14,09,42,15.40
2009,08,14,09,43,15.50
2009,08,14,09,44,15.50
2009,08,14,09,45,15.60
2009,08,14,09,46,15.60
2009,08,14,09,47,15.60
2009,08,14,09,48,15.70
2009,08,14,09,49,15.70
2009,08,14,09,50,15.80
2009,08,14,09,51,15.80
2009,08,14,09,52,15.80
2009,08,14,09,53,15.80
2009,08,14,09,54,15.90
2009,08,14,09,55,15.90
2009,08,14,09,56,15.90
2009,08,14,09,57,15.90
2009,08,14,09,58,16.00
2009,08,14,09,59,16.10
2009,08,14,10,00,16.20
2009,08,14,10,01,16.20
2009,08,14,10,02,16.30
2009,08,14,10,03,16.30
2009,08,14,10,04,16.40
2009,08,14,10,05,16.50
2009,08,14,10,06,16.60
2009,08,14,10,07,16.60
2009,08,14,10,08,16.70
2009,08,14,10,09,16.70
2009,08,14,10,10,16.80
2009,08,14,10,11,16.80
2009,08,14,10,12,16.80
2009,08,14,10,13,16.80
2009,08,14,10,14,16.80
2009,08,14,10,15,16.70
2009,08,14,10,16,16.70
2009,08,14,10,17,16.60
2009,08,14,10,18,16.60
2009,08,14,10,19,16.70
2009,08,14,10,20,16.70
2009,08,14,10,21,16.80
2009,08,14,10,22,17.00
2009,08,14,10,23,17.10
2009,08,14,10,24,17.20
2009,08,14,10,25,17.30
2009,08,14,10,26,17.40
2009,08,14,10,27,17.60
2009,08,14,10,28,17.70
2009,08,14,10,29,17.80
2009,08,14,10,30,17.80
2009,08,14,10,31,17.80
2009,08,14,10,32,17.90
2009,08,14,10,33,17.90
2009,08,14,10,34,18.00
2009,08,14,10,35,18.00
2009,08,14,10,36,18.10
2009,08,14,10,37,18.10
2009,08,14,10,38,18.00
2009,08,14,10,39,18.00
2009,08,14,10,40,17.90
2009,08,14,10,41,17.80
2009,08,14,10,42,17.80
2009,08,14,10,43,17.70
2009,08,14,10,44,17.70
2009,08,14,10,45,17.70
2009,08,14,10,46,17.70
2009,08,14,10,47,17.80
2009,08,14,10,48,17.90
2009,08,14,10,49,17.90
2009,08,14,10,50,17.90
2009,08,14,10,51,17.80
2009,08,14,10,52,17.80
2009,08,14,10,53,17.80
2009,08,14,10,54,17.80
2009,08,14,10,55,17.80
2009,08,14,10,56,17.80
2009,08,14,10,57,17.90
2009,08,14,10,58,17.90
2009,08,14,10,59,18.00
2009,08,14,11,00,18.10
2009,08,14,11,01,18.20
2009,08,14,11,02,18.10
2009,08,14,11,03,18.00
2009,08,14,11,04,18.00
2009,08,14,11,05,18.00
2009,08,14,11,06,17.90
2009,08,14,11,07,17.90
2009,08,14,11,08,17.90
2009,08,14,11,09,18.00
2009,08,14,11,10,18.00
2009,08,14,11,11,18.10
2009,08,14,11,12,18.10
2009,08,14,11,13,18.10
2009,08,14,11,14,18.00
2009,08,14,11,15,18.00
2009,08,14,11,16,18.00
2009,08,14,11,17,18.10
2009,08,14,11,18,18.20
2009,08,14,11,19,18.20
2009,08,14,11,20,18.20
2009,08,14,11,21,18.30
2009,08,14,11,22,18.30
2009,08,14,11,23,18.30
2009,08,14,11,24,18.20
2009,08,14,11,25,18.20
2009,08,14,11,26,18.20
2009,08,14,11,27,18.00
2009,08,14,11,28,17.90
2009,08,14,11,29,17.80
2009,08,14,11,30,17.80
2009,08,14,11,31,17.70
2009,08,14,11,32,17.60
2009,08,14,11,33,17.50
2009,08,14,11,34,17.50
2009,08,14,11,35,17.40
2009,08,14,11,36,17.40
2009,08,14,11,37,17.30
2009,08,14,11,38,17.30
2009,08,14,11,39,17.30
2009,08,14,11,40,17.30
2009,08,14,11,41,17.40
2009,08,14,11,42,17.40
2009,08,14,11,43,17.50
2009,08,14,11,44,17.50
2009,08,14,11,45,17.40
2009,08,14,11,46,17.40
2009,08,14,11,47,17.40
2009,08,14,11,48,17.50
2009,08,14,11,49,17.50
2009,08,14,11,50,17.50
2009,08,14,11,51,17.40
2009,08,14,11,52,17.40
2009,08,14,11,53,17.30
2009,08,14,11,54,17.30
2009,08,14,11,55,17.40
2009,08,14,11,56,17.40
2009,08,14,11,57,17.40
2009,08,14,11,58,17.40
2009,08,14,11,59,17.40
2009,08,14,12,00,17.40
2009,08,14,12,01,17.50
2009,08,14,12,02,17.50
2009,08,14,12,03,17.60
2009,08,14,12,04,17.60
2009,08,14,12,05,17.70
2009,08,14,12,06,17.70
2009,08,14,12,07,17.70
2009,08,14,12,08,17.80
2009,08,14,12,09,17.80
2009,08,14,12,10,17.80
2009,08,14,12,11,17.90
2009,08,14,12,12,18.00
2009,08,14,12,13,18.10
2009,08,14,12,14,18.20
2009,08,14,12,15,18.20
2009,08,14,12,16,18.20
2009,08,14,12,17,18.20
2009,08,14,12,18,18.10
2009,08,14,12,19,18.00
2009,08,14,12,20,17.90
2009,08,14,12,21,17.90
2009,08,14,12,22,18.00
2009,08,14,12,23,18.10
2009,08,14,12,24,18.20
2009,08,14,12,25,18.30
2009,08,14,12,26,18.40
2009,08,14,12,27,18.30
2009,08,14,12,28,18.30
2009,08,14,12,29,18.20
2009,08,14,12,30,18.20
2009,08,14,12,31,18.20
2009,08,14,12,32,18.20
2009,08,14,12,33,18.10
2009,08,14,12,34,18.20
2009,08,14,12,35,18.20
2009,08,14,12,36,18.10
2009,08,14,12,37,18.00
2009,08,14,12,38,17.90
2009,08,14,12,39,18.00
2009,08,14,12,40,18.10
2009,08,14,12,41,18.10
2009,08,14,12,42,18.10
2009,08,14,12,43,18.10
2009,08,14,12,44,18.10
2009,08,14,12,45,18.10
2009,08,14,12,46,18.10
2009,08,14,12,47,18.10
2009,08,14,12,48,18.10
2009,08,14,12,49,18.10
2009,08,14,12,50,18.20
2009,08,14,12,51,18.20
2009,08,14,12,52,18.20
2009,08,14,12,53,18.20
2009,08,14,12,54,18.20
2009,08,14,12,55,18.20
2009,08,14,12,56,18.30
2009,08,14,12,57,18.30
2009,08,14,12,58,18.30
2009,08,14,12,59,18.30
2009,08,14,13,00,18.30
2009,08,14,13,01,18.30
2009,08,14,13,02,18.30
2009,08,14,13,03,18.30
2009,08,14,13,04,18.20
2009,08,14,13,05,18.20
2009,08,14,13,06,18.20
2009,08,14,13,07,18.30
2009,08,14,13,08,18.40
2009,08,14,13,09,18.40
2009,08,14,13,10,18.50
2009,08,14,13,11,18.50
2009,08,14,13,12,18.60
2009,08,14,13,13,18.60
2009,08,14,13,14,18.70
2009,08,14,13,15,18.70
2009,08,14,13,16,18.70
2009,08,14,13,17,18.70
2009,08,14,13,18,18.70
2009,08,14,13,19,18.70
2009,08,14,13,20,18.70
2009,08,14,13,21,18.60
2009,08,14,13,22,18.50
2009,08,14,13,23,18.40
2009,08,14,13,24,18.50
2009,08,14,13,25,18.50
2009,08,14,13,26,18.60
2009,08,14,13,27,18.60
2009,08,14,13,28,18.70
2009,08,14,13,29,18.80
2009,08,14,13,30,18.90
2009,08,14,13,31,18.90
2009,08,14,13,32,18.90
2009,08,14,13,33,18.80
2009,08,14,13,34,18.80
2009,08,14,13,35,18.80
2009,08,14,13,36,18.80
2009,08,14,13,37,18.80
2009,08,14,13,38,18.80
2009,08,14,13,39,18.60
2009,08,14,13,40,18.60
2009,08,14,13,41,18.60
2009,08,14,13,42,18.60
2009,08,14,13,43,18.60
2009,08,14,13,44,18.60
2009,08,14,13,45,18.70
2009,08,14,13,46,18.70
2009,08,14,13,47,18.70
2009,08,14,13,48,18.80
2009,08,14,13,49,18.90
2009,08,14,13,50,18.90
2009,08,14,13,51,18.90
2009,08,14,13,52,18.90
2009,08,14,13,53,18.90
2009,08,14,13,54,18.80
2009,08,14,13,55,18.70
2009,08,14,13,56,18.80
2009,08,14,13,57,18.80
2009,08,14,13,58,18.80
2009,08,14,13,59,18.80
2009,08,14,14,00,18.90
2009,08,14,14,01,18.90
2009,08,14,14,02,18.80
2009,08,14,14,03,18.80
2009,08,14,14,04,18.80
2009,08,14,14,05,18.80
2009,08,14,14,06,18.80
2009,08,14,14,07,18.80
2009,08,14,14,08,18.70
2009,08,14,14,09,18.70
2009,08,14,14,10,18.60
2009,08,14,14,11,18.70
2009,08,14,14,12,18.70
2009,08,14,14,13,18.80
2009,08,14,14,14,18.90
2009,08,14,14,15,18.90
2009,08,14,14,16,19.00
2009,08,14,14,17,18.90
2009,08,14,14,18,18.90
2009,08,14,14,19,18.90
2009,08,14,14,20,18.90
2009,08,14,14,21,18.90
2009,08,14,14,22,19.00
2009,08,14,14,23,19.20
2009,08,14,14,24,19.30
2009,08,14,14,25,19.30
2009,08,14,14,26,19.30
2009,08,14,14,27,19.30
2009,08,14,14,28,19.40
2009,08,14,14,29,19.30
2009,08,14,14,30,19.30
2009,08,14,14,31,19.30
2009,08,14,14,32,19.20
2009,08,14,14,33,19.20
2009,08,14,14,34,19.20
2009,08,14,14,35,19.20
2009,08,14,14,36,19.20
2009,08,14,14,37,19.20
2009,08,14,14,38,19.20
2009,08,14,14,39,19.30
2009,08,14,14,40,19.30
2009,08,14,14,41,19.40
2009,08,14,14,42,19.50
2009,08,14,14,43,19.60
2009,08,14,14,44,19.60
2009,08,14,14,45,19.70
2009,08,14,14,46,19.70
2009,08,14,14,47,19.80
2009,08,14,14,48,19.80
2009,08,14,14,49,19.90
2009,08,14,14,50,20.00
2009,08,14,14,51,19.90
2009,08,14,14,52,19.90
2009,08,14,14,53,19.90
2009,08,14,14,54,19.90
2009,08,14,14,55,19.90
2009,08,14,14,56,20.00
2009,08,14,14,57,20.00
2009,08,14,14,58,20.10
2009,08,14,14,59,20.00
2009,08,14,15,00,20.00
2009,08,14,15,01,20.00
2009,08,14,15,02,20.00
2009,08,14,15,03,20.10
2009,08,14,15,04,20.10
2009,08,14,15,05,20.20
2009,08,14,15,06,20.10
2009,08,14,15,07,20.10
2009,08,14,15,08,20.20
2009,08,14,15,09,20.20
2009,08,14,15,10,20.10
2009,08,14,15,11,20.00
2009,08,14,15,12,20.00
2009,08,14,15,13,20.00
2009,08,14,15,14,20.10
2009,08,14,15,15,20.10
2009,08,14,15,16,20.10
2009,08,14,15,17,20.00
2009,08,14,15,18,20.00
2009,08,14,15,19,20.00
2009,08,14,15,20,19.80
2009,08,14,15,21,19.80
2009,08,14,15,22,19.70
2009,08,14,15,23,19.70
2009,08,14,15,24,19.60
2009,08,14,15,25,19.70
2009,08,14,15,26,19.60
2009,08,14,15,27,19.60
2009,08,14,15,28,19.60
2009,08,14,15,29,19.50
2009,08,14,15,30,19.50
2009,08,14,15,31,19.50
2009,08,14,15,32,19.50
2009,08,14,15,33,19.40
2009,08,14,15,34,19.40
2009,08,14,15,35,19.50
2009,08,14,15,36,19.60
2009,08,14,15,37,19.70
2009,08,14,15,38,19.70
2009,08,14,15,39,19.70
2009,08,14,15,40,19.60
2009,08,14,15,41,19.50
2009,08,14,15,42,19.50
2009,08,14,15,43,19.40
2009,08,14,15,44,19.40
2009,08,14,15,45,19.40
2009,08,14,15,46,19.40
2009,08,14,15,47,19.40
2009,08,14,15,48,19.30
2009,08,14,15,49,19.30
2009,08,14,15,50,19.30
2009,08,14,15,51,19.30
2009,08,14,15,52,19.30
2009,08,14,15,53,19.20
2009,08,14,15,54,19.20
2009,08,14,15,55,19.10
2009,08,14,15,56,19.10
2009,08,14,15,57,19.20
2009,08,14,15,58,19.20
2009,08,14,15,59,19.30
2009,08,14,16,00,19.40
2009,08,14,16,01,19.30
2009,08,14,16,02,19.30
2009,08,14,16,03,19.30
2009,08,14,16,04,19.20
2009,08,14,16,05,19.10
2009,08,14,16,06,19.10
2009,08,14,16,07,19.10
2009,08,14,16,08,19.10
2009,08,14,16,09,19.00
2009,08,14,16,10,18.90
2009,08,14,16,11,18.80
2009,08,14,16,12,18.70
2009,08,14,16,13,18.60
2009,08,14,16,14,18.60
2009,08,14,16,15,18.50
2009,08,14,16,16,18.50
2009,08,14,16,17,18.60
2009,08,14,16,18,18.60
2009,08,14,16,19,18.70
2009,08,14,16,20,18.80
2009,08,14,16,21,18.90
2009,08,14,16,22,18.90
2009,08,14,16,23,18.80
2009,08,14,16,24,18.70
2009,08,14,16,25,18.60
2009,08,14,16,26,18.50
2009,08,14,16,27,18.40
2009,08,14,16,28,18.40
2009,08,14,16,29,18.50
2009,08,14,16,30,18.50
2009,08,14,16,31,18.80
2009,08,14,16,32,19.00
2009,08,14,16,33,19.10
2009,08,14,16,34,19.30
2009,08,14,16,35,19.40
2009,08,14,16,36,19.50
2009,08,14,16,37,19.40
2009,08,14,16,38,19.40
2009,08,14,16,39,19.30
2009,08,14,16,40,19.30
2009,08,14,16,41,19.10
2009,08,14,16,42,19.10
2009,08,14,16,43,19.10
2009,08,14,16,44,19.10
2009,08,14,16,45,19.20
2009,08,14,16,46,19.30
2009,08,14,16,47,19.30
2009,08,14,16,48,19.30
2009,08,14,16,49,19.50
2009,08,14,16,50,19.60
2009,08,14,16,51,19.70
2009,08,14,16,52,19.70
2009,08,14,16,53,19.60
2009,08,14,16,54,19.50
2009,08,14,16,55,19.50
2009,08,14,16,56,19.50
2009,08,14,16,57,19.40
2009,08,14,16,58,19.50
2009,08,14,16,59,19.40
2009,08,14,17,00,19.40
2009,08,14,17,01,19.30
2009,08,14,17,02,19.30
2009,08,14,17,03,19.30
2009,08,14,17,04,19.30
2009,08,14,17,05,19.30
2009,08,14,17,06,19.30
2009,08,14,17,07,19.20
2009,08,14,17,08,19.20
2009,08,14,17,09,19.10
2009,08,14,17,10,19.00
2009,08,14,17,11,19.00
2009,08,14,17,12,18.90
2009,08,14,17,13,18.80
2009,08,14,17,14,18.70
2009,08,14,17,15,18.70
2009,08,14,17,16,18.70
2009,08,14,17,17,18.60
2009,08,14,17,18,18.60
2009,08,14,17,19,18.50
2009,08,14,17,20,18.40
2009,08,14,17,21,18.30
2009,08,14,17,22,18.30
2009,08,14,17,23,18.30
2009,08,14,17,24,18.40
2009,08,14,17,25,18.40
2009,08,14,17,26,18.40
2009,08,14,17,27,18.30
2009,08,14,17,28,18.20
2009,08,14,17,29,18.20
2009,08,14,17,30,18.30
2009,08,14,17,31,18.30
2009,08,14,17,32,18.40
2009,08,14,17,33,18.40
2009,08,14,17,34,18.50
2009,08,14,17,35,18.60
2009,08,14,17,36,18.70
2009,08,14,17,37,18.80
2009,08,14,17,38,18.90
2009,08,14,17,39,18.90
2009,08,14,17,40,18.90
2009,08,14,17,41,18.90
2009,08,14,17,42,19.00
2009,08,14,17,43,18.90
2009,08,14,17,44,18.90
2009,08,14,17,45,18.90
2009,08,14,17,46,18.80
2009,08,14,17,47,18.80
2009,08,14,17,48,18.70
2009,08,14,17,49,18.70
2009,08,14,17,50,18.70
2009,08,14,17,51,18.80
2009,08,14,17,52,18.80
2009,08,14,17,53,19.00
2009,08,14,17,54,19.10
2009,08,14,17,55,19.20
2009,08,14,17,56,19.30
2009,08,14,17,57,19.40
2009,08,14,17,58,19.40
2009,08,14,17,59,19.50
2009,08,14,18,00,19.50
2009,08,14,18,01,19.50
2009,08,14,18,02,19.50
2009,08,14,18,03,19.40
2009,08,14,18,04,19.40
2009,08,14,18,05,19.30
2009,08,14,18,06,19.30
2009,08,14,18,07,19.30
2009,08,14,18,08,19.20
2009,08,14,18,09,19.10
2009,08,14,18,10,19.00
2009,08,14,18,11,18.90
2009,08,14,18,12,18.70
2009,08,14,18,13,18.60
2009,08,14,18,14,18.40
2009,08,14,18,15,18.30
2009,08,14,18,16,18.20
2009,08,14,18,17,18.20
2009,08,14,18,18,18.20
2009,08,14,18,19,18.20
2009,08,14,18,20,18.10
2009,08,14,18,21,18.10
2009,08,14,18,22,18.00
2009,08,14,18,23,17.80
2009,08,14,18,24,17.70
2009,08,14,18,25,17.60
2009,08,14,18,26,17.50
2009,08,14,18,27,17.40
2009,08,14,18,28,17.20
2009,08,14,18,29,17.10
2009,08,14,18,30,17.00
2009,08,14,18,31,16.90
2009,08,14,18,32,16.80
2009,08,14,18,33,16.80
2009,08,14,18,34,16.70
2009,08,14,18,35,16.60
2009,08,14,18,36,16.60
2009,08,14,18,37,16.60
2009,08,14,18,38,16.60
2009,08,14,18,39,16.60
2009,08,14,18,40,16.60
2009,08,14,18,41,16.60
2009,08,14,18,42,16.60
2009,08,14,18,43,16.60
2009,08,14,18,44,16.60
2009,08,14,18,45,16.60
2009,08,14,18,46,16.60
2009,08,14,18,47,16.50
2009,08,14,18,48,16.50
2009,08,14,18,49,16.50
2009,08,14,18,50,16.50
2009,08,14,18,51,16.50
2009,08,14,18,52,16.60
2009,08,14,18,53,16.60
2009,08,14,18,54,16.60
2009,08,14,18,55,16.60
2009,08,14,18,56,16.60
2009,08,14,18,57,16.60
2009,08,14,18,58,16.60
2009,08,14,18,59,16.60
2009,08,14,19,00,16.60
2009,08,14,19,01,16.70
2009,08,14,19,02,16.70
2009,08,14,19,03,16.70
2009,08,14,19,04,16.70
2009,08,14,19,05,16.70
2009,08,14,19,06,16.70
2009,08,14,19,07,16.60
2009,08,14,19,08,16.60
2009,08,14,19,09,16.60
2009,08,14,19,10,16.50
2009,08,14,19,11,16.50
2009,08,14,19,12,16.40
2009,08,14,19,13,16.40
2009,08,14,19,14,16.30
2009,08,14,19,15,16.30
2009,08,14,19,16,16.30
2009,08,14,19,17,16.30
2009,08,14,19,18,16.30
2009,08,14,19,19,16.30
2009,08,14,19,20,16.30
2009,08,14,19,21,16.30
2009,08,14,19,22,16.30
2009,08,14,19,23,16.30
2009,08,14,19,24,16.30
2009,08,14,19,25,16.30
2009,08,14,19,26,16.30
